Location: Westminster
(33.3626°N, 96.4619°W)
Time: 19:30:45
(UTC+00:00)

CZ-2C R/B - Pass Details

Date: 03 December 2021
Orbit: 784 x 870 km, 98.2° (Epoch: 26 January)

Event Time Altitude Azimuth Distance (km) Brightness Sun altitude
Rises 12:23:57 0° 187° (S) 3,425 6.0 -10.4°
Reaches altitude 10° 12:26:31 10° 196° (SSW) 2,483 5.2 -9.9°
Maximum altitude 12:31:34 36° 262° (W) 1,306 3.3 -8.9°
Drops below altitude 10° 12:36:34 10° 328° (NNW) 2,450 4.6 -7.9°
Sets 12:39:06 0° 337° (NNW) 3,373 5.4 -7.4°
